Flag for Argentina

Past Weather in Salta, Salta, Argentina — Yesterday and Last 2 Weeks

Now
81 °F

Passing clouds.


Feels Like: 81 °F
Forecast: 90 / 65 °F
Wind: No wind

Location: Salta Aerodrome
Current Time: Oct 24, 2020 at 12:14:58 pm
Latest Report: Oct 24, 2020 at 11:00 am
Visibility: N/A
Pressure29.95 "Hg(26.17 "Hg at 1184m altitude)
Humidity: 51%
Dew Point: 61 °F
Location of SaltaLocation

Past Weather in Salta — Graph

°F

Salta Temperature Yesterday

Maximum temperature yesterday: 88 °F (at 3:00 pm)
Minimum temperature yesterday: 64 °F (at 5:00 am)
Average temperature yesterday: 76 °F

High & Low Weather Summary for the Past Weeks

 TemperatureHumidityPressure
High97 °F (Oct 19, 3:00 pm)88% (Oct 17, 6:00 am)30.21 "Hg (Oct 17, 6:00 am)
Low50 °F (Oct 10, 7:00 am)14% (Oct 19, 3:00 pm)29.74 "Hg (Oct 18, 6:00 pm)
Average71 °F49%30.02 "Hg
* Reported Oct 9 10:00 am — Oct 24 10:00 am, Salta. Weather by CustomWeather, © 2020

Note: Actual official high and low records may vary slightly from our data, if they occured in-between our weather recording intervals... More about our weather records

Salta Weather History for the Previous 24 Hours

Scroll right to see more
 ConditionsComfort  
Time TempWeatherWind HumidityBarometerVisibility
10:00 am
Sat, Oct 24
79 °FPassing clouds.3 mph58%29.98 "HgN/A
9:00 am73 °FScattered clouds.5 mph69%30.01 "HgN/A
8:00 am70 °FPartly sunny.2 mph78%30.01 "HgN/A
7:00 am70 °FScattered clouds.2 mph78%30.01 "HgN/A
6:00 am70 °FPassing clouds.3 mph73%29.98 "HgN/A
5:00 am68 °FPassing clouds.5 mph78%29.98 "HgN/A
4:00 am68 °FPassing clouds.3 mph78%29.95 "HgN/A
3:00 am68 °FClear.2 mph73%29.95 "Hg10 mi
2:00 am72 °FPassing clouds.3 mph69%29.98 "HgN/A
1:00 am72 °FPassing clouds.5 mph69%30.01 "HgN/A
12:00 am75 °FPassing clouds.10 mph61%30.01 "HgN/A
11:00 pm
Fri, Oct 23
73 °FPassing clouds.7 mph65%29.98 "HgN/A
10:00 pm77 °FPassing clouds.3 mph54%29.95 "HgN/A
9:00 pm79 °FPassing clouds.7 mph54%29.92 "HgN/A
8:00 pm81 °FPassing clouds.7 mph48%29.89 "HgN/A
7:00 pm82 °FScattered clouds.9 mph42%29.86 "HgN/A
6:00 pm84 °FScattered clouds.9 mph37%29.86 "HgN/A
5:00 pm86 °FBroken clouds.9 mph38%29.86 "HgN/A
4:00 pm86 °FBroken clouds.7 mph38%29.86 "HgN/A
3:00 pm88 °FScattered clouds.7 mph38%29.89 "HgN/A
2:00 pm82 °FPartly sunny.6 mph45%29.92 "HgN/A
1:00 pm81 °FScattered clouds.12 mph48%29.98 "HgN/A
12:00 pm81 °FBroken clouds.12 mph51%29.98 "HgN/A
Weather by CustomWeather, © 2020

See weather overview